Location: Curicchi
(45.0167°N, 12.0500°E)
Time: 02:53:51
(UTC+00:00)

Cosmos 2221 - Pass Details

Date: 07 June 2020
Orbit: 594 x 615 km, 82.5° (Epoch: 11 July)

Event Time Altitude Azimuth Distance (km) Brightness Sun altitude
Rises 02:08:00 0° 337° (NNW) 2,882 6.4 -11.1°
Reaches altitude 10° 02:10:40 10° 321° (NW) 1,976 5.3 -10.8°
Maximum altitude 02:13:52 20° 273° (W) 1,418 4.1 -10.4°
Enters shadow 02:16:18 13° 234° (SW) 1,759 4.2 -10.1°
